Location: �quirre
(50.4736°N, 2.2351°E)
Time: 16:24:33
(UTC+00:00)

NOSS 0 Rocket - Pass Details

Date: 07 August 2020
Orbit: 934 x 956 km, 70.0° (Epoch: 18 September)

Event Time Altitude Azimuth Distance (km) Brightness Sun altitude
Rises 01:34:30 0° 324° (NW) 3,637 7.4 -19.8°
Reaches altitude 10° 01:37:11 10° 317° (NW) 2,690 6.6 -19.7°
Maximum altitude 01:42:54 39° 251° (WSW) 1,399 4.5 -19.3°
Enters shadow 01:44:39 32° 217° (SW) 1,567 4.5 -19.1°
